Erzurum, Turkey

7:54 PM EEST on August 27, 2016 (GMT +0300)
Erzurum

Weather History for LTCE - December, 2012

Change the Weather History Date:

Thursday, December 6, 2012

  Actual Average Record
Temperature  
Mean Temperature 27 °F -  
Max Temperature 36 °F 30 °F 50 °F (2005)
Min Temperature 18 °F 17 °F -13 °F (2011)
Degree Days  
Heating Degree Days 38    
Moisture  
Dew Point 24 °F    
Average Humidity 86    
Maximum Humidity 100    
Minimum Humidity 50    
Precipitation  
Precipitation 0.03 in 0.03 in - ()
Sea Level Pressure  
Sea Level Pressure 29.90 in    
Wind  
Wind Speed 6 mph ()    
Max Wind Speed 16 mph    
Max Gust Speed -    
Visibility 6.3 miles    
Events Snow    
Averages and records for this station are not official NWS values.
T = Trace of Precipitation, MM = Missing Value Source: Averaged Metar Reports

Daily Weather History Graph

Daily Weather History Graph

Search for Another Location

Airport or City:

Trip Planner

Search our weather history database for the weather conditions in past years. The results will help you decide how hot, cold, wet, or windy it might be!

Date:

Astronomy

Dec. 06, 2012 Rise Set
Actual Time 6:22 AM EET 3:50 PM EET
Civil Twilight 5:52 AM EET 4:20 PM EET
Nautical Twilight 5:18 AM EET 4:54 PM EET
Astronomical Twilight 4:45 AM EET 5:26 PM EET
Moon 11:19 PM EET (12/6) 11:05 AM EET (12/6)
Length of Visible Light 10h 27m
Length of Day
9h 27m
Waning Gibbous, 52% of the Moon is Illuminated
Dec 6
Waning Gibbous
Dec 6
Last Quarter
Dec 13
New
Dec 20
First Quarter
Dec 28
Full

Hourly Weather History & Observations

Time (EET) Temp. Windchill Dew Point Humidity Pressure Visibility Wind Dir Wind Speed Gust Speed Precip Events Conditions
12:20 AM 26.6 °F 22.6 °F 24.8 °F 93% 29.83 in 6.2 mi North 3.5 mph - N/A   Mostly Cloudy
12:50 AM 24.8 °F 17.9 °F 23.0 °F 93% 29.83 in 6.2 mi North 5.8 mph - N/A   Scattered Clouds
1:20 AM 23.0 °F 13.9 °F 21.2 °F 93% 29.83 in 6.2 mi North 8.1 mph - N/A   Scattered Clouds
1:50 AM 21.2 °F 14.9 °F 19.4 °F 93% 29.83 in 6.2 mi North 4.6 mph - N/A   Scattered Clouds
2:00 AM 21 °F - 21 °F 98%  in 6 mi North 4.6 mph - -   Partly Cloudy
2:20 AM 19.4 °F 14.3 °F 17.6 °F 93% 29.83 in 6.2 mi North 3.5 mph - N/A   Partly Cloudy
2:50 AM 19.4 °F 11.5 °F 19.4 °F 100% 29.86 in 6.2 mi North 5.8 mph - N/A   Partly Cloudy
3:20 AM 21.2 °F 14.9 °F 19.4 °F 93% 29.86 in - North 4.6 mph - N/A   Clear
3:50 AM 21.2 °F 13.6 °F 21.2 °F 100% 29.86 in - North 5.8 mph - N/A   Clear
4:20 AM 23.0 °F 17.0 °F 21.2 °F 93% 29.83 in - North 4.6 mph - N/A   Clear
4:50 AM 23.0 °F 17.0 °F 19.4 °F 86% 29.86 in - North 4.6 mph - N/A   Clear
5:20 AM 23.0 °F 13.9 °F 19.4 °F 86% 29.86 in - North 8.1 mph - N/A   Clear
5:50 AM 23.0 °F 13.9 °F 21.2 °F 93% 29.86 in 6.2 mi North 8.1 mph - N/A   Scattered Clouds
6:20 AM 24.8 °F 15.3 °F 21.2 °F 86% 29.86 in 6.2 mi North 9.2 mph - N/A   Mostly Cloudy
6:50 AM 23.0 °F 13.9 °F 21.2 °F 93% 29.86 in 6.2 mi North 8.1 mph - N/A   Mostly Cloudy
7:20 AM 24.8 °F 16.1 °F 23.0 °F 93% 29.89 in 6.2 mi North 8.1 mph - N/A   Mostly Cloudy
7:50 AM 28.4 °F 18.5 °F 24.8 °F 86% 29.89 in 6.2 mi West 11.5 mph - N/A   Mostly Cloudy
8:00 AM 29 °F - 25 °F 77%  in 6 mi West 11.5 mph - -   Partly Cloudy
8:20 AM 30.2 °F 21.3 °F 24.8 °F 80% 29.89 in 6.2 mi West 10.4 mph - N/A   Mostly Cloudy
8:50 AM 30.2 °F 20.8 °F 24.8 °F 80% 29.89 in 6.2 mi WNW 11.5 mph - N/A   Mostly Cloudy
9:20 AM 30.2 °F 21.3 °F 24.8 °F 80% 29.92 in 6.2 mi WSW 10.4 mph - N/A   Mostly Cloudy
9:50 AM 32.0 °F 24.2 °F 26.6 °F 80% 29.92 in 6.2 mi West 9.2 mph - N/A   Mostly Cloudy
10:20 AM 32.0 °F 23.0 °F 24.8 °F 75% 29.89 in 6.2 mi West 11.5 mph - N/A   Mostly Cloudy
10:50 AM 32.0 °F 23.6 °F 24.8 °F 75% 29.89 in 6.2 mi WNW 10.4 mph - N/A   Mostly Cloudy
11:20 AM 32.0 °F 24.2 °F 23.0 °F 69% 29.86 in 6.2 mi WNW 9.2 mph - N/A   Mostly Cloudy
11:50 AM 33.8 °F 25.3 °F 24.8 °F 70% 29.86 in 6.2 mi WNW 11.5 mph - N/A   Mostly Cloudy
12:20 PM 35.6 °F 25.9 °F 24.8 °F 65% 29.86 in - WSW 16.1 mph - N/A   Unknown
12:50 PM 35.6 °F 26.6 °F 24.8 °F 65% 29.86 in 6.2 mi SW 13.8 mph - N/A   Mostly Cloudy
1:20 PM 33.8 °F 25.3 °F 23.0 °F 65% 29.89 in 6.2 mi SW 11.5 mph - N/A   Mostly Cloudy
1:50 PM 33.8 °F 23.9 °F 21.2 °F 60% 29.89 in 6.2 mi WSW 15.0 mph - N/A   Mostly Cloudy
2:00 PM 33 °F - 21 °F 50%  in 12 mi WSW 15.0 mph - -   Partly Cloudy
2:20 PM 32.0 °F 21.2 °F 21.2 °F 64% 29.89 in 6.2 mi SW 16.1 mph - N/A   Mostly Cloudy
2:50 PM 32.0 °F 24.2 °F 23.0 °F 69% 29.92 in 6.2 mi SW 9.2 mph - N/A   Mostly Cloudy
3:20 PM 32.0 °F 24.8 °F 21.2 °F 64% 29.89 in 6.2 mi WSW 8.1 mph - N/A   Mostly Cloudy
3:50 PM 32.0 °F 25.6 °F 23.0 °F 69% 29.92 in 6.2 mi WSW 6.9 mph - N/A   Mostly Cloudy
4:20 PM 32.0 °F 24.2 °F 23.0 °F 69% 29.92 in 6.2 mi WSW 9.2 mph - N/A   Mostly Cloudy
4:50 PM 32.0 °F 23.0 °F 24.8 °F 75% 29.92 in 6.2 mi WSW 11.5 mph - N/A   Mostly Cloudy
5:20 PM 28.4 °F 21.2 °F 28.4 °F 100% 29.95 in - WSW 6.9 mph - N/A Snow Light Snow
5:50 PM 28.4 °F 24.6 °F 28.4 °F 100% 29.95 in - WNW 3.5 mph - N/A Snow Light Snow
6:20 PM 28.4 °F 23.3 °F 28.4 °F 100% 29.95 in 2.5 mi NW 4.6 mph - N/A Snow Light Snow
6:50 PM 28.4 °F 24.6 °F 28.4 °F 100% 29.95 in - NNW 3.5 mph - N/A Snow Light Snow
7:20 PM 28.4 °F - 28.4 °F 100% 29.95 in 4.3 mi Calm Calm - N/A Snow Light Snow
7:50 PM 28.4 °F - 28.4 °F 100% 29.95 in 6.2 mi Variable 1.2 mph - N/A   Mostly Cloudy
8:00 PM 28 °F - 28 °F 99%  in 12 mi South 1.2 mph - - Snow Light Snow
8:20 PM 26.6 °F - 26.6 °F 100% 29.95 in 6.2 mi Calm Calm - N/A   Mostly Cloudy
8:50 PM 28.4 °F 24.6 °F 28.4 °F 100% 29.95 in 6.2 mi North 3.5 mph - N/A   Mostly Cloudy
9:20 PM 28.4 °F - 28.4 °F 100% 29.95 in 6.2 mi SSE 2.3 mph - N/A   Mostly Cloudy
9:50 PM 28.4 °F - 28.4 °F 100% 29.95 in 6.2 mi SSE 2.3 mph - N/A   Mostly Cloudy
10:20 PM 28.4 °F - 28.4 °F 100% 29.98 in 6.2 mi Variable 1.2 mph - N/A   Mostly Cloudy
10:50 PM 26.6 °F 22.6 °F 26.6 °F 100% 29.98 in 6.2 mi West 3.5 mph - N/A   Mostly Cloudy
11:20 PM 26.6 °F 20.0 °F 26.6 °F 100% 29.98 in 6.2 mi WNW 5.8 mph - N/A   Mostly Cloudy
11:50 PM 26.6 °F 18.2 °F 26.6 °F 100% 29.95 in 6.2 mi WNW 8.1 mph - N/A   Mostly Cloudy